[[{"header":{"parameterUnit":"m.s-1","parameterCategory":1,"la1":30.2991,"la2":30.254,"lo1":-89.0895,"lo2":-89.0444,"dy":0.0017,"dx":0.0017,"nx":28,"ny":28,"refTime":"2025-07-28T09:00:00:Z","depth":0,"parameterNumber":2,"parameterNumberName":"U-component_of_WINDS"},"data":[0,0,0,0,0,0,0,0,0,0,0,0,0,0,0,0,0,0,0,0,0,0,0,0,0,0,0,0,0,0,0,0,0,0,0,0,0,0,0,0,0,0,0,0,0,0,0,0,0,0,0,0,0,0,0,0,0,0,1.8669,1.8669,0,1.8659,1.8659,1.8658,1.8603,1.8602,1.86,1.8599,1.859,1.8591,1.8592,0,0,0,0,0,0,0,0,0,0,0,0,0,1.8644,1.8644,1.8669,1.8669,1.8669,1.8659,1.8659,1.8658,1.8603,1.8601,1.86,1.8598,1.859,1.8591,1.8592,0,0,0,0,0,0,0,0,0,0,0,0,0,1.8646,1.8645,1.8669,1.864,1.8637,1.8659,1.8659,1.8658,1.8603,1.8601,1.8599,1.8598,1.8589,1.8591,1.8592,1.8642,0,0,1.8597,1.8598,0,0,0,0,0,0,0,0,1.8646,1.8647,1.8644,1.8642,1.8639,1.863,1.8646,1.8653,1.8604,1.8616,1.8599,1.8597,1.8605,1.8605,1.8608,1.8641,1.8641,1.8597,1.8598,1.8599,1.8599,0,0,0,0,0,0,0,1.8646,1.8647,1.8665,1.8644,1.8641,1.8628,1.8626,1.8647,1.8622,1.8615,1.8611,1.861,1.8603,1.8606,1.8607,1.8641,1.8597,1.8598,1.8599,1.86,1.8716,1.8718,0,0,0,0,0,0,1.865,1.8647,1.8665,1.8665,1.8638,1.863,1.8628,1.8635,1.8622,1.8618,1.8612,1.8608,1.8605,1.8605,1.8607,1.8665,1.8599,1.86,1.8601,1.8714,1.8717,1.8719,0,0,0,0,0,0,1.8649,1.8652,1.8666,1.8655,1.8656,1.8633,1.8641,1.8636,1.8639,1.8619,1.8615,1.862,1.8603,1.8604,1.8634,1.8664,1.8601,1.8602,1.8711,1.8715,1.8718,1.8781,0,0,0,0,0,0,1.8649,1.8652,1.867,1.8656,1.8657,1.8692,1.8643,1.8637,1.8641,1.8636,1.8625,1.8622,1.8602,1.8632,1.8635,1.8665,1.8603,1.8709,1.8713,1.8717,1.8777,1.8786,1.8795,0,0,0,0,0,1.8648,1.8688,1.8671,1.8673,1.8678,1.8694,1.8695,1.867,1.8644,1.8662,1.865,1.8622,1.866,1.8635,1.8639,1.8669,1.8707,1.8712,1.8717,1.8772,1.8784,1.8795,0,0,0,0,0,0,1.8706,1.8686,1.8666,1.8703,1.8701,1.8685,1.8707,1.8684,1.8689,1.8684,1.8654,1.8652,1.8686,1.868,1.8653,1.8717,1.8679,1.8684,1.872,1.8731,1.874,1.8742,1.8605,0,0,0,0,0,1.8723,1.8737,1.8719,1.8753,1.8753,1.873,1.8736,1.8718,1.8714,1.8713,1.8703,1.8702,1.8713,1.8722,1.8731,1.8775,1.8773,1.8798,1.8807,1.8815,1.8821,1.8845,1.8857,1.8735,1.8735,1.8735,0,0,1.8759,1.8749,1.876,1.8764,1.876,1.8777,1.873,1.8749,1.8761,1.8716,1.8744,1.8736,1.8733,1.877,1.8786,1.8766,1.8854,1.8821,1.8827,1.8829,1.8852,1.8863,1.8874,1.8739,1.8738,1.8737,0,0,1.8833,1.8826,1.8854,1.8852,1.8846,1.8831,1.8838,1.8826,1.882,1.8846,1.8814,1.8828,1.8848,1.8848,1.885,1.8924,1.89,1.8928,1.8977,1.9002,1.9011,1.902,1.9048,1.9059,1.8934,1.8934,1.8934,0,1.8878,1.89,1.8872,1.8894,1.8897,1.8857,1.8887,1.8886,1.8884,1.8888,1.8865,1.8891,1.8886,1.8923,1.8942,1.8944,1.8953,1.893,1.9012,1.902,1.9027,1.9055,1.9065,1.8938,1.8937,1.8937,1.8937,0,1.8957,1.8973,1.8997,1.8997,1.9003,1.9028,1.9005,1.9015,1.8996,1.8984,1.9012,1.9004,1.9013,1.902,1.9001,1.9055,1.9044,1.9017,1.8978,1.9043,1.9068,1.9078,1.8943,1.8942,1.8941,1.894,0,0,1.9068,1.9052,1.9061,1.9061,1.9053,1.9065,1.9089,1.9097,1.9107,1.9107,1.9128,1.9146,1.9122,1.9125,1.9106,1.9127,1.9189,1.9098,1.9097,1.9117,1.9251,1.9273,1.9285,1.9172,1.9174,1.9175,1.9252,0,1.914,1.918,1.9156,1.92,1.9216,1.9178,1.9199,1.9197,1.9187,1.9199,1.9187,1.9202,1.9167,1.9169,1.9189,1.9178,1.9216,1.9171,1.9193,1.9194,1.9197,1.9297,1.932,1.9393,1.9261,1.9263,1.9264,0,1.9229,1.9234,1.928,1.927,1.9275,1.9295,1.9301,1.9312,1.931,1.93,1.9304,1.928,1.9305,1.9265,1.9299,1.927,1.9277,1.9273,1.9275,1.9278,1.9234,1.9305,1.9415,1.9427,1.9279,1.9278,1.9276,0,1.9308,1.9325,1.9355,1.9356,1.9345,1.936,1.9356,1.9351,1.9357,1.9363,1.9367,1.9375,1.938,1.9387,1.9367,1.9339,1.9405,1.9363,1.9399,1.94,1.9416,1.9416,1.9531,1.9418,1.9418,1.9417,1.9417,0,1.9392,1.9423,1.9391,1.941,1.9443,1.9415,1.9449,1.9441,1.9437,1.9455,1.9422,1.9439,1.941,1.9425,1.9409,1.9441,1.9443,1.9438,1.9434,1.9442,1.9443,1.9448,1.9443,1.942,1.942,1.9419,1.9419,0,1.9487,1.9467,1.9497,1.9484,1.9481,1.9507,1.9495,1.9513,1.95,1.9523,1.9526,1.9507,1.9522,1.9502,1.9516,1.9506,1.955,1.9537,1.9551,1.9548,1.9587,1.9584,1.9711,1.9727,1.9601,1.9602,1.9603,0,1.9543,1.9565,1.9554,1.9563,1.9561,1.9576,1.9583,1.9557,1.9565,1.9564,1.9583,1.9595,1.9605,1.9632,1.9619,1.963,1.9619,1.9662,1.9621,1.9629,1.9622,1.9622,1.9625,1.9672,1.9673,1.9675,1.9676,0,1.9645,1.9634,1.9645,1.9653,1.9661,1.9666,1.9668,1.9678,1.965,1.9662,1.9677,1.9685,1.9699,1.9713,1.9721,1.9718,1.9693,1.9689,1.9698,1.9708,1.9716,1.9714,1.9577,1.9686,1.9685,1.9684,1.9684,1.9683,1.9724,1.9743,1.9738,1.9751,1.975,1.9754,1.977,1.9759,1.9771,1.9781,1.9764,1.9785,1.9783,1.9791,1.979,1.9807,1.9788,1.9801,1.9805,1.9809,1.9816,1.9712,1.9808,1.9808,1.9807,1.9807,1.9807,0,1.9826,1.9822,1.9834,1.9839,1.985,1.9824,1.9825,1.9837,1.9855,1.9855,1.9864,1.9883,1.9897,1.9886,1.9897,1.9913,1.9902,1.9917,1.9917,1.9917,1.9831,1.9823,1.9926,1.9926,1.9926,1.9926,1.9926,1.9926,1.9881,1.9913,1.9901,1.9932,1.9927,1.9947,1.995,1.9954,1.9953,1.9976,1.9987,1.9979,1.9975,1.9986,1.9998,1.9995,2.0002,2.0021,2.0014,1.9935,1.9923,1.9912,1.9904,2.0022,2.0023,2.0099,2.01,2.01]},{"header":{"parameterUnit":"m.s-1","parameterCategory":1,"la1":30.2991,"la2":30.254,"lo1":-89.0895,"lo2":-89.0444,"dy":0.0017,"dx":0.0017,"nx":28,"ny":28,"refTime":"2025-07-28T09:00:00:Z","depth":0,"parameterNumber":3,"parameterNumberName":"V-component_of_WINDS"},"data":[0,0,0,0,0,0,0,0,0,0,0,0,0,0,0,0,0,0,0,0,0,0,0,0,0,0,0,0,0,0,0,0,0,0,0,0,0,0,0,0,0,0,0,0,0,0,0,0,0,0,0,0,0,0,0,0,0,0,-1.2854,-1.2854,0,-1.2891,-1.2891,-1.2892,-1.2898,-1.2898,-1.2897,-1.2897,-1.2936,-1.2937,-1.2938,0,0,0,0,0,0,0,0,0,0,0,0,0,-1.2791,-1.2792,-1.2854,-1.2854,-1.2855,-1.2891,-1.2891,-1.2892,-1.2898,-1.2898,-1.2897,-1.2897,-1.2935,-1.2937,-1.2939,0,0,0,0,0,0,0,0,0,0,0,0,0,-1.2822,-1.2793,-1.2854,-1.2862,-1.2863,-1.2891,-1.2891,-1.2892,-1.2898,-1.2898,-1.2897,-1.2897,-1.2935,-1.2937,-1.2939,-1.2961,0,0,-1.2945,-1.2946,0,0,0,0,0,0,0,0,-1.282,-1.2825,-1.286,-1.2862,-1.2863,-1.2889,-1.2883,-1.2915,-1.2898,-1.2885,-1.2897,-1.2896,-1.2921,-1.2924,-1.2932,-1.2962,-1.2964,-1.2945,-1.2946,-1.2947,-1.2948,0,0,0,0,0,0,0,-1.2818,-1.2823,-1.2868,-1.2861,-1.2863,-1.2865,-1.2869,-1.2889,-1.2905,-1.2886,-1.2887,-1.2891,-1.2921,-1.293,-1.2933,-1.2965,-1.2945,-1.2947,-1.2948,-1.2949,-1.3016,-1.3017,0,0,0,0,0,0,-1.2814,-1.2821,-1.2867,-1.287,-1.284,-1.2866,-1.2871,-1.2881,-1.2905,-1.2908,-1.2891,-1.2891,-1.2927,-1.2931,-1.2934,-1.2962,-1.2947,-1.2949,-1.295,-1.3016,-1.3016,-1.3017,0,0,0,0,0,0,-1.2813,-1.2818,-1.2866,-1.2846,-1.2852,-1.2868,-1.288,-1.2882,-1.2891,-1.2909,-1.2912,-1.2897,-1.2927,-1.2931,-1.2954,-1.2963,-1.295,-1.2952,-1.3015,-1.3016,-1.3017,-1.3017,0,0,0,0,0,0,-1.2811,-1.2818,-1.2826,-1.2846,-1.2853,-1.2884,-1.288,-1.2883,-1.2894,-1.2894,-1.2915,-1.2918,-1.2927,-1.2951,-1.2956,-1.2966,-1.2953,-1.3014,-1.3015,-1.3016,-1.3016,-1.3018,-1.3019,0,0,0,0,0,-1.2809,-1.2824,-1.2826,-1.2831,-1.2863,-1.2885,-1.2889,-1.2898,-1.2895,-1.2903,-1.2915,-1.2917,-1.2962,-1.2953,-1.2959,-1.297,-1.3014,-1.3015,-1.3016,-1.3016,-1.3018,-1.3019,0,0,0,0,0,0,-1.2805,-1.2827,-1.2829,-1.2851,-1.2866,-1.2886,-1.2897,-1.29,-1.2916,-1.2916,-1.2927,-1.2932,-1.2954,-1.2964,-1.2955,-1.2993,-1.2988,-1.299,-1.2985,-1.2987,-1.2988,-1.2985,-1.2955,0,0,0,0,0,-1.2807,-1.2822,-1.2841,-1.2859,-1.2866,-1.288,-1.289,-1.2896,-1.2912,-1.2919,-1.2932,-1.2948,-1.2966,-1.2977,-1.2994,-1.3018,-1.3023,-1.3028,-1.303,-1.3031,-1.3033,-1.3047,-1.305,-1.3021,-1.3021,-1.3021,0,0,-1.281,-1.2824,-1.2833,-1.2858,-1.287,-1.2887,-1.2885,-1.2903,-1.2915,-1.2921,-1.2944,-1.2954,-1.2973,-1.2997,-1.3008,-1.3006,-1.3042,-1.3032,-1.3033,-1.3035,-1.3049,-1.3052,-1.3054,-1.3022,-1.3022,-1.3022,0,0,-1.2825,-1.2837,-1.2854,-1.2866,-1.2885,-1.2894,-1.2898,-1.2918,-1.2925,-1.2948,-1.2953,-1.2969,-1.2999,-1.3012,-1.3023,-1.3045,-1.3048,-1.305,-1.3058,-1.3072,-1.3074,-1.3076,-1.3084,-1.3087,-1.3052,-1.3052,-1.3052,0,-1.2827,-1.2852,-1.2862,-1.2879,-1.2891,-1.2897,-1.2914,-1.2926,-1.295,-1.2958,-1.2955,-1.2994,-1.3007,-1.3034,-1.304,-1.3048,-1.3054,-1.3048,-1.3073,-1.3075,-1.3077,-1.3085,-1.3088,-1.3052,-1.3052,-1.3052,-1.3052,0,-1.2854,-1.2871,-1.2883,-1.2905,-1.2918,-1.2935,-1.2948,-1.296,-1.2966,-1.2976,-1.3,-1.3016,-1.3037,-1.3044,-1.3049,-1.3072,-1.3071,-1.307,-1.3065,-1.308,-1.3088,-1.3091,-1.3053,-1.3053,-1.3052,-1.3052,0,0,-1.2867,-1.2895,-1.2899,-1.291,-1.2932,-1.2946,-1.2964,-1.2985,-1.2995,-1.3011,-1.3027,-1.3053,-1.3054,-1.3066,-1.3073,-1.3085,-1.3103,-1.3084,-1.3084,-1.3087,-1.313,-1.3131,-1.3134,-1.3105,-1.3106,-1.3106,-1.3129,0,-1.2885,-1.2917,-1.2927,-1.2954,-1.2971,-1.2978,-1.2994,-1.3009,-1.302,-1.3036,-1.3048,-1.3066,-1.3065,-1.3072,-1.3085,-1.3098,-1.3112,-1.3096,-1.3121,-1.3122,-1.3116,-1.3138,-1.3138,-1.3159,-1.3132,-1.3133,-1.3133,0,-1.2909,-1.2926,-1.2955,-1.2976,-1.2983,-1.2997,-1.3018,-1.3033,-1.3051,-1.3058,-1.3073,-1.3079,-1.31,-1.3094,-1.3123,-1.3112,-1.3123,-1.3131,-1.3132,-1.3135,-1.3128,-1.3141,-1.3165,-1.3169,-1.3138,-1.3138,-1.3137,0,-1.2916,-1.2946,-1.2967,-1.2976,-1.3001,-1.3011,-1.3022,-1.304,-1.3052,-1.307,-1.3079,-1.3099,-1.311,-1.3126,-1.3138,-1.3133,-1.3167,-1.3162,-1.3173,-1.3173,-1.318,-1.3179,-1.3206,-1.3187,-1.3187,-1.3187,-1.3187,0,-1.2935,-1.2952,-1.2971,-1.2984,-1.3004,-1.3016,-1.3037,-1.3048,-1.3064,-1.308,-1.3088,-1.3103,-1.3119,-1.3136,-1.3146,-1.3169,-1.3174,-1.3181,-1.3183,-1.318,-1.3179,-1.3187,-1.3186,-1.3187,-1.3187,-1.3187,-1.3187,0,-1.2945,-1.2958,-1.2982,-1.3004,-1.301,-1.3024,-1.3043,-1.3057,-1.3068,-1.3089,-1.3094,-1.3112,-1.3133,-1.3147,-1.3174,-1.3181,-1.3206,-1.3208,-1.32,-1.3201,-1.3212,-1.3211,-1.3245,-1.3251,-1.3227,-1.3228,-1.3228,0,-1.2956,-1.297,-1.2993,-1.3005,-1.3016,-1.3034,-1.3046,-1.3059,-1.3072,-1.3095,-1.3106,-1.3128,-1.3146,-1.318,-1.3196,-1.3217,-1.322,-1.323,-1.3223,-1.322,-1.3221,-1.322,-1.3221,-1.3231,-1.3232,-1.3232,-1.3232,0,-1.2975,-1.2981,-1.2998,-1.3019,-1.3034,-1.305,-1.3067,-1.3076,-1.3092,-1.3107,-1.3128,-1.3142,-1.3171,-1.3192,-1.3215,-1.3227,-1.3233,-1.3234,-1.3238,-1.3235,-1.323,-1.3233,-1.3203,-1.3233,-1.3233,-1.3233,-1.3233,-1.3233,-1.2986,-1.2999,-1.3018,-1.3038,-1.3052,-1.3068,-1.3082,-1.3095,-1.3113,-1.3137,-1.3144,-1.3167,-1.3187,-1.3218,-1.3231,-1.3249,-1.3248,-1.3254,-1.3255,-1.3256,-1.3257,-1.3227,-1.3254,-1.3253,-1.3253,-1.3253,-1.3253,0,-1.3005,-1.3018,-1.3036,-1.306,-1.3075,-1.3079,-1.3098,-1.3111,-1.3131,-1.3149,-1.3167,-1.3193,-1.3214,-1.3232,-1.3255,-1.3267,-1.327,-1.3272,-1.3272,-1.3274,-1.3256,-1.3251,-1.3269,-1.3269,-1.3269,-1.3269,-1.3269,-1.3269,-1.3017,-1.304,-1.3048,-1.3078,-1.3091,-1.3113,-1.3124,-1.3139,-1.3154,-1.3182,-1.32,-1.3211,-1.323,-1.3254,-1.3274,-1.3279,-1.3287,-1.3289,-1.3295,-1.3277,-1.3276,-1.3274,-1.3269,-1.3291,-1.3291,-1.3312,-1.3312,-1.3312]}]]